Location: Ernsee
(50.8780°N, 12.0389°E)
Time: 17:57:43
(UTC+00:00)

CZ-4B R/B - Pass Details

Date: 20 January 2020
Orbit: 808 x 882 km, 99.1° (Epoch: 20 February)

Event Time Altitude Azimuth Distance (km) Brightness Sun altitude
Rises 04:37:27 0° 19° (NNE) 3,474 6.6 -22.6°
Reaches altitude 10° 04:39:57 10° 24° (NNE) 2,523 5.9 -22.2°
Maximum altitude 04:45:24 51° 100° (E) 1,077 4.1 -21.4°
Drops below altitude 10° 04:50:42 10° 176° (S) 2,460 5.7 -20.5°
Sets 04:53:06 0° 181° (S) 3,379 6.4 -20.1°
